User: anonymous   Login
Location: Unspecified
(43.4680°N, 87.1740°E)
Time: 12:08:17
(UTC+00:00)
Language:

Cosmos 1943 Rocket - Orbit

View from above orbital plane
View from above orbital plane
View from above satellite
View from above satellite

Ground track
Ground track

The orbit data is extracted from the following two-line orbital elements,

1 19120U 88039B   21173.85444323 -.00000044  00000-0  17914-5 0  9994
2 19120  71.0135 105.8437 0019763 100.2634 260.0720 14.19220573714207
Epoch (UTC): 22 June 2021 20:30:23
Eccentricity: 0.0019763
inclination: 71.0135°
perigee height: 814 km
apogee height: 842 km
right ascension of ascending node: 105.8437°
argument of perigee: 100.2634°
revolutions per day: 14.19220573
mean anomaly at epoch: 260.0720°
orbit number at epoch: 71420

The dashed part of the orbit path shows where the satellite is in the earth's shadow,  

DLR